Location: Appleton
(44.2618°N, 88.4157°W)
Time: 12:29:11
(UTC+00:00)

Transit 2A Rocket - Visible Passes

Search period start: 07 March 2021 00:00
Search period end: 17 March 2021 00:00
Orbit: 594 x 908 km, 66.7° (Epoch: 06 March)

Date Brightness Start Highest point End Pass type
(mag) Time Alt. Az. Time Alt. Az. Time Alt. Az.
07 Mar 7.1 10:07:48 10° NNW 10:07:48 10° NNW 10:08:06 10° NNW visible
08 Mar 7.3 09:26:14 12° N 09:26:14 12° N 09:26:42 10° N visible
09 Mar 7.6 08:44:39 10° N 08:44:39 10° N 08:44:40 10° N visible
